This is the latest recevied weather packets stored in our database for station/object 5B4APJ-13. If no packets are shown the sender has not sent any weather packets the latest 10 day(s).
| Time | Temp. | Humidity | Pressure | Rain* | Wind** | Luminosity | Snow |
|---|---|---|---|---|---|---|---|
| 1777950723 | 11.11° C | 76% | 1010.3 hPa | 0 mm | 0.45 m/s, 134° | 7 W/m² | - |
| 1777950424 | 10.56° C | 74% | 1010.3 hPa | 0 mm | 0 m/s | 5 W/m² | - |
| 1777950124 | 11.11° C | 75% | 1010.3 hPa | 0 mm | 0.45 m/s, 135° | 3 W/m² | - |
| 1777949823 | 10.56° C | 75% | 1010.1 hPa | 0 mm | 0 m/s | 2 W/m² | - |
| 1777949522 | 10.56° C | 74% | 1010.2 hPa | 0 mm | 0.89 m/s, 98° | 1 W/m² | - |
| 1777949223 | 10.56° C | 74% | 1009.9 hPa | 0 mm | 1.34 m/s, 96° | 1 W/m² | - |
| 1777948923 | 11.11° C | 74% | 1010.2 hPa | 0 mm | 0.89 m/s, 106° | 0 W/m² | - |
| 1777948623 | 11.11° C | 72% | 1009.9 hPa | 0 mm | 0.45 m/s, 39° | 0 W/m² | - |
| 1777948323 | 11.11° C | 71% | 1010.1 hPa | 0 mm | 0.45 m/s, 38° | 0 W/m² | - |
| 1777948023 | 11.11° C | 70% | 1010.3 hPa | 0 mm | 0.89 m/s, 12° | 0 W/m² | - |
| 1777947723 | 11.11° C | 70% | 1010.2 hPa | 0 mm | 1.34 m/s, 336° | 0 W/m² | - |
| 1777947423 | 11.11° C | 69% | 1009.8 hPa | 0 mm | 1.34 m/s, 354° | 0 W/m² | - |
| 1777947122 | 11.11° C | 70% | 1009.9 hPa | 0 mm | 1.34 m/s, 49° | 0 W/m² | - |
| 1777946823 | 11.11° C | 70% | 1009.9 hPa | 0 mm | 0 m/s | 0 W/m² | - |
| 1777946523 | 10.56° C | 71% | 1009.8 hPa | 0 mm | 0.89 m/s, 75° | 0 W/m² | - |
| 1777946223 | 10.56° C | 70% | 1009.8 hPa | 0 mm | 0 m/s | 0 W/m² | - |
| 1777945923 | 11.11° C | 70% | 1009.7 hPa | 0 mm | 0.45 m/s, 295° | 0 W/m² | - |
| 1777945623 | 11.11° C | 70% | 1009.8 hPa | 0 mm | 0.45 m/s, 302° | 0 W/m² | - |
| 1777945323 | 10.56° C | 71% | 1009.6 hPa | 0 mm | 0 m/s | 0 W/m² | - |
| 1777945023 | 11.11° C | 70% | 1009.8 hPa | 0 mm | 0.45 m/s, 302° | 0 W/m² | - |
| 1777944723 | 11.11° C | 71% | 1009.7 hPa | 0 mm | 0.45 m/s, 302° | 0 W/m² | - |
| 1777944423 | 11.11° C | 70% | 1009.9 hPa | 0 mm | 0 m/s | 0 W/m² | - |
| 1777944123 | 11.11° C | 70% | 1009.9 hPa | 0 mm | 0 m/s | 0 W/m² | - |
| 1777943823 | 11.11° C | 70% | 1009.9 hPa | 0 mm | 0 m/s | 0 W/m² | - |
| 1777943523 | 10.56° C | 73% | 1010 hPa | 0 mm | 0 m/s | 0 W/m² | - |
* Rain latest hour (hover to see other rain measurements)
** Current wind speed in m/s (hover to see current wind gust speed)